Home   Weather   Locarno   Past weeks

Flag for Switzerland Past Weather in Locarno, Ticino, Switzerland — Yesterday and Last 2 Weeks

Now
31 °F

Chilly.


Feels Like: 31 °F
Forecast: 22 / 28 °F
Wind: 1 mph from Northeast

Location: Locarno-Monti

Current Time: Jan 21, 2017 at 3:20:06 am

Latest Report: Jan 21, 2017 at 2:00 am


Visibility: N/A

Pressure: 30.52 "Hg

Humidity: 61%

Dew Point: 19 °F

Location of LocarnoLocation

Past Weather in Locarno — Graph

°F

Locarno Temperature Yesterday

Maximum temperature yesterday: 41 °F (at 3:00 pm)
Minimum temperature yesterday: 28 °F (at 5:00 am)
Average temperature yesterday: 33 °F

High & Low Weather Summary for the Past Weeks

 TemperatureHumidityPressure
High45 °F (Jan 14, 3:00 pm)100% (Jan 13, 5:00 am)30.56 "Hg (Jan 13, 5:00 am)
Low26 °F (Jan 7, 8:00 am)14% (Jan 6, 12:00 pm)29.55 "Hg (Jan 13, 3:00 pm)
Average33 °F55%30.17 "Hg
* Reported Jan 6 1:00 am — Jan 21 1:00 am, Locarno, Weather by CustomWeather, © 2017

Note: Actual official high and low records may vary slightly from our data, if they occured in-between our weather recording intervals... More about our weather records

Advertising

Locarno Weather History for the Previous 24 Hours

Scroll right to see more
 ConditionsComfort  
Time TempWeatherWind HumidityBarometerVisibility
1:00 am
Sat, Jan 21
32 °FChilly.2 mph60%30.53 "HgN/A
12:00 am31 °FChilly.1 mph62%30.53 "HgN/A
11:00 pm
Fri, Jan 20
33 °FChilly.1 mph57%30.53 "HgN/A
10:00 pm33 °FChilly.No wind57%30.53 "HgN/A
9:00 pm34 °FChilly.No wind58%30.53 "HgN/A
8:00 pm35 °FChilly.1 mph52%30.52 "HgN/A
7:00 pm35 °FClear.1 mph55%30.51 "Hg12 mi
6:00 pm36 °FChilly.2 mph53%30.49 "HgN/A
5:00 pm38 °FChilly.1 mph50%30.47 "HgN/A
4:00 pm40 °FSunny.2 mph43%30.47 "Hg11 mi
3:00 pm41 °FQuite cool.3 mph43%30.47 "HgN/A
2:00 pm40 °FChilly.3 mph45%30.48 "HgN/A
1:00 pm37 °FSunny.2 mph47%30.51 "Hg9 mi
12:00 pm36 °FChilly.3 mph50%30.53 "HgN/A
11:00 am35 °FChilly.2 mph57%30.56 "HgN/A
10:00 am31 °FSunny.1 mph66%30.56 "Hg7 mi
9:00 am30 °FChilly.1 mph61%30.56 "HgN/A
8:00 am28 °FChilly.1 mph67%30.56 "HgN/A
7:00 am29 °FClear.No wind65%30.55 "Hg16 mi
6:00 am29 °FChilly.No wind67%30.55 "HgN/A
5:00 am28 °FChilly.No wind68%30.56 "HgN/A
4:00 am29 °FChilly.No wind68%30.56 "HgN/A
3:00 am30 °FChilly.1 mph65%30.56 "HgN/A
Weather by CustomWeather, © 2017

See weather overviewHow to use our weather pages